Flag for U.S.A. Weather past 2 weeks in Norwalk, California, U.S.A.

Now
61 °F

Clear.


Feels Like: 61 °F
Forecast: 59 / 73 °F
Wind: No wind

Location: Fullerton Municipal Airport

Current Time: May 25, 2015 at 12:53:37 AM

Latest Report: May 24, 2015 at 11:53 PM


Visibility: 10 mi

Pressure: 29.96 "Hg

Humidity: 75%

Dew point: 53 °F

Location of NorwalkLocation

Historic Weather in Norwalk — Graph

°F

Norwalk temperature yesterday

Maximum temperature yesterday: 72 °F (at 3:53 PM)
Minimum temperature yesterday: 61 °F (at 11:53 PM)
Average temperature yesterday: 65 °F

Past Weeks' High & Low Weather Summary

 TemperatureHumidityPressure
High78 °F (May 10, 4:53 PM)87% (May 11, 2:53 AM)30.08 "Hg (May 11, 2:53 AM)
Low52 °F (May 10, 5:53 AM)35% (May 11, 5:53 PM)29.78 "Hg (May 11, 6:53 PM)
Average64 °F63%29.95 "Hg
* Reported May 9 11:53 PM — May 24 11:53 PM, Norwalk, Weather by CustomWeather, © 2015

Note: Actual official high and low records may vary slightly from our data, if they occured in-between our weather recording intervals... More about our weather records

Advertising

Norwalk weather history for previous 24 hours

 ConditionsComfort  
Time TempWeatherWind HumidityBarometerVisibility
11:53 PM
Sun, May 24
61 °FClear.No wind75%29.96 "Hg10 mi
10:53 PM62 °FClear.No wind73%29.96 "Hg10 mi
9:53 PM62 °FClear.3 mph73%29.96 "Hg10 mi
8:53 PM62 °FClear.6 mph73%29.95 "Hg10 mi
7:53 PM63 °FSunny.7 mph70%29.93 "Hg10 mi
6:53 PM67 °FSunny.8 mph59%29.93 "Hg10 mi
5:53 PM70 °FSunny.7 mph53%29.93 "Hg10 mi
4:53 PM69 °FSunny.7 mph55%29.94 "Hg10 mi
3:53 PM72 °FOvercast.7 mph48%29.96 "Hg10 mi
2:53 PM69 °FOvercast.7 mph53%29.97 "Hg10 mi
1:53 PM70 °FOvercast.7 mph49%29.98 "Hg10 mi
12:53 PM68 °FOvercast.No wind55%30.00 "Hg10 mi
11:53 AM66 °FOvercast.5 mph59%30.01 "Hg10 mi
10:53 AM65 °FOvercast.No wind61%30.01 "Hg10 mi
9:53 AM65 °FOvercast.5 mph61%30.01 "Hg10 mi
8:53 AM65 °FMostly cloudy.3 mph61%30.01 "Hg10 mi
7:53 AM63 °FOvercast.3 mph65%30.01 "Hg10 mi
6:53 AM63 °FMostly cloudy.No wind65%29.99 "Hg10 mi
5:53 AM63 °FOvercast.3 mph65%29.98 "Hg10 mi
5:00 AM63 °FOvercast.No wind65%29.98 "Hg10 mi
3:53 AM63 °FOvercast.3 mph65%29.97 "Hg10 mi
2:53 AM63 °FOvercast.No wind65%29.98 "Hg10 mi
1:53 AM63 °FMostly cloudy.No wind65%29.98 "Hg10 mi
12:53 AM63 °FOvercast.No wind68%29.99 "Hg10 mi
Weather by CustomWeather, © 2015

See weather overviewHow to use our weather pages